ECHOSTAR 11

Last updated on Thu Nov 21 2024 00:02:41 GMT+0000 (Coordinated Universal Time)

1 33207U 08035A 24325.39638127 -.00000055 00000+0 00000+0 0 9995 2 33207 0.0316 75.9104 0002700 150.7287 225.9678 1.00271331 45468
UTC large
Height (km)
Speed (km/s)
/
Latitude / Longitude
Inclination (degrees)
Orbital Period (minutes)
Azimuth
Elevation
Range (km)
Doppler Factor

Next 0 passes for location: London (51.5072 / 0.1276)

Sorry there are no passes over London.